Monte Tamaro — DFKP2 — position and weather

sailwx.info

Track history (hours):
 
Tides and Currents Weather Stations Pressure Air Temp Water Temp Dewpoint Dewpoint Depression Visibility Wind Speed Wind Dir Waves Ship Positions

Monte Tamaro

Last reported at 2014-Nov-25 12:00 UTC. Time now 2014-Nov-25 22:04 UTC.
Position S 20°18' W 039°12'.

Length 272.1 m; beam 40.1 m; draft 13.2 m.

Type: Ship (hazmat cat B). MMSI: 218132000.

Wind from 340 at 12 knots

Barometer 1014.9 mb
Air temperature 29.0 ° C
Visibility: greater than 10.8 NM
Dewpoint 22.2 ° C
Water temperature 25.0 ° C

Date/timePositionNaut miles runAvg speedWind from/ knotsBaromVisibWave heightAir tempDewpointWater temp
2014-Nov-25 12:00S 20°18' W 039°12'383 8.0 340 / 121014.910.8 29.022.225.0
2014-Nov-23 12:00S 23°54' W 044°54'6411.7 290 / 51012.810.8 25.720.723.0
2014-Nov-23 06:30S 24°16' W 046°00'1211.9
2014-Nov-23 05:32S 24°15' W 046°13'1110.6
2014-Nov-23 04:31S 24°10' W 046°23'1010.6
2014-Nov-23 03:34S 24°00' W 046°20'3 3.3
2014-Nov-23 02:33S 23°58' W 046°18'0 0.0
2014-Nov-23 01:33S 23°58' W 046°18'0 0.0
2014-Nov-23 00:33S 23°58' W 046°18'0 0.0
2014-Nov-22 23:33S 23°58' W 046°18'0 0.0
2014-Nov-22 22:33S 23°58' W 046°18'0 0.0
2014-Nov-22 21:27S 23°58' W 046°18'0 0.0
2014-Nov-22 20:30S 23°58' W 046°18'0 0.0
2014-Nov-22 19:33S 23°58' W 046°18'0 0.0
2014-Nov-22 18:33S 23°58' W 046°18'0 0.0
2014-Nov-22 17:24S 23°58' W 046°18'0 0.0
2014-Nov-22 16:33S 23°58' W 046°18'0 0.0
2014-Nov-22 15:33S 23°58' W 046°18'0 0.0
2014-Nov-22 14:33S 23°58' W 046°18'0 0.0
2014-Nov-22 13:33S 23°58' W 046°18'0 0.0
2014-Nov-22 12:33S 23°58' W 046°18'0 0.0
2014-Nov-22 11:30S 23°58' W 046°18'0 0.0
2014-Nov-22 10:33S 23°58' W 046°18'0 0.0
2014-Nov-22 09:33S 23°58' W 046°18'0 0.0
2014-Nov-22 08:33S 23°58' W 046°18'0 0.0
2014-Nov-22 07:33S 23°58' W 046°18'0 0.0
2014-Nov-22 06:33S 23°58' W 046°18'0 0.0
2014-Nov-22 05:30S 23°58' W 046°18'0 0.0
2014-Nov-22 04:33S 23°58' W 046°18'0 0.0
2014-Nov-22 03:33S 23°58' W 046°18'0 0.0
2014-Nov-22 02:33S 23°58' W 046°18'0 0.0
2014-Nov-22 01:30S 23°58' W 046°18'0 0.0
2014-Nov-22 00:33S 23°58' W 046°18'0 0.0
2014-Nov-21 23:33S 23°58' W 046°18'3 2.8
2014-Nov-21 22:33S 23°60' W 046°20'9 8.5
2014-Nov-21 21:33S 24°08' W 046°23'49 5.1
2014-Nov-21 12:00S 24°48' W 046°54'166 5.0 050 / 101014.310.8 26.019.923.0
2014-Nov-20 02:29S 27°19' W 048°12'1011.1
2014-Nov-20 01:33S 27°29' W 048°12'1111.3
2014-Nov-20 00:33S 27°40' W 048°13'2 3.7
2014-Nov-20 00:00S 27°42' W 048°12'1120.4 340 / 241014.210.8 24.019.124.0
2014-Nov-19 23:28S 27°52' W 048°15'13611.8
2014-Nov-19 12:00S 29°54' W 049°24'14612.1 030 / 301012.3 5.4 24.016.821.0
2014-Nov-19 00:00S 31°54' W 051°00'52 2.2 040 / 241011.810.8 22.917.622.0
2014-Nov-18 00:00S 32°18' W 051°54'0 0.0 070 / 201017.510.8 21.517.921.0
2014-Nov-17 12:00S 32°18' W 051°54'0 0.0 090 / 181020.310.8 23.016.321.0
2014-Nov-17 06:00S 32°18' W 051°54'   130 / 201017.810.8 19.915.921.0
Track history (hours):
 
Tides and Currents Weather Stations Pressure Air Temp Water Temp Dewpoint Dewpoint Depression Visibility Wind Speed Wind Dir Waves Ship Positions

Monte Tamaro

Last reported at 2014-Nov-25 12:00 UTC. Time now 2014-Nov-25 22:04 UTC.
Position S 20°18' W 039°12'.

Length 272.1 m; beam 40.1 m; draft 13.2 m.

Type: Ship (hazmat cat B). MMSI: 218132000.

Wind from 340 at 12 knots

Barometer 1014.9 mb
Air temperature 29.0 ° C
Visibility: greater than 10.8 NM
Dewpoint 22.2 ° C
Water temperature 25.0 ° C

Date/timePositionNaut miles runAvg speedWind from/ knotsBaromVisibWave heightAir tempDewpointWater temp
2014-Nov-25 12:00S 20°18' W 039°12'383 8.0 340 / 121014.910.8 29.022.225.0
2014-Nov-23 12:00S 23°54' W 044°54'6411.7 290 / 51012.810.8 25.720.723.0
2014-Nov-23 06:30S 24°16' W 046°00'1211.9
2014-Nov-23 05:32S 24°15' W 046°13'1110.6
2014-Nov-23 04:31S 24°10' W 046°23'1010.6
2014-Nov-23 03:34S 24°00' W 046°20'3 3.3
2014-Nov-23 02:33S 23°58' W 046°18'0 0.0
2014-Nov-23 01:33S 23°58' W 046°18'0 0.0
2014-Nov-23 00:33S 23°58' W 046°18'0 0.0
2014-Nov-22 23:33S 23°58' W 046°18'0 0.0
2014-Nov-22 22:33S 23°58' W 046°18'0 0.0
2014-Nov-22 21:27S 23°58' W 046°18'0 0.0
2014-Nov-22 20:30S 23°58' W 046°18'0 0.0
2014-Nov-22 19:33S 23°58' W 046°18'0 0.0
2014-Nov-22 18:33S 23°58' W 046°18'0 0.0
2014-Nov-22 17:24S 23°58' W 046°18'0 0.0
2014-Nov-22 16:33S 23°58' W 046°18'0 0.0
2014-Nov-22 15:33S 23°58' W 046°18'0 0.0
2014-Nov-22 14:33S 23°58' W 046°18'0 0.0
2014-Nov-22 13:33S 23°58' W 046°18'0 0.0
2014-Nov-22 12:33S 23°58' W 046°18'0 0.0
2014-Nov-22 11:30S 23°58' W 046°18'0 0.0
2014-Nov-22 10:33S 23°58' W 046°18'0 0.0
2014-Nov-22 09:33S 23°58' W 046°18'0 0.0
2014-Nov-22 08:33S 23°58' W 046°18'0 0.0
2014-Nov-22 07:33S 23°58' W 046°18'0 0.0
2014-Nov-22 06:33S 23°58' W 046°18'0 0.0
2014-Nov-22 05:30S 23°58' W 046°18'0 0.0
2014-Nov-22 04:33S 23°58' W 046°18'0 0.0
2014-Nov-22 03:33S 23°58' W 046°18'0 0.0
2014-Nov-22 02:33S 23°58' W 046°18'0 0.0
2014-Nov-22 01:30S 23°58' W 046°18'0 0.0
2014-Nov-22 00:33S 23°58' W 046°18'0 0.0
2014-Nov-21 23:33S 23°58' W 046°18'3 2.8
2014-Nov-21 22:33S 23°60' W 046°20'9 8.5
2014-Nov-21 21:33S 24°08' W 046°23'49 5.1
2014-Nov-21 12:00S 24°48' W 046°54'166 5.0 050 / 101014.310.8 26.019.923.0
2014-Nov-20 02:29S 27°19' W 048°12'1011.1
2014-Nov-20 01:33S 27°29' W 048°12'1111.3
2014-Nov-20 00:33S 27°40' W 048°13'2 3.7
2014-Nov-20 00:00S 27°42' W 048°12'1120.4 340 / 241014.210.8 24.019.124.0
2014-Nov-19 23:28S 27°52' W 048°15'13611.8
2014-Nov-19 12:00S 29°54' W 049°24'14612.1 030 / 301012.3 5.4 24.016.821.0
2014-Nov-19 00:00S 31°54' W 051°00'52 2.2 040 / 241011.810.8 22.917.622.0
2014-Nov-18 00:00S 32°18' W 051°54'0 0.0 070 / 201017.510.8 21.517.921.0
2014-Nov-17 12:00S 32°18' W 051°54'0 0.0 090 / 181020.310.8 23.016.321.0
2014-Nov-17 06:00S 32°18' W 051°54'   130 / 201017.810.8 19.915.921.0

Dump ship's entire track history